owner,sensor,date,latitude,longitude,vertical_datum,wind_speed,wind_to_direction,wind_speed_of_gust,qcFlag 
TABS,ioos:station:wmo:42045:1,2008-04-01T00:00:00Z,26.2168,-96.4998,4.0,5.389062998,136.0528732,6.6,'11111222,11111222,11111222' 
TABS,ioos:station:wmo:42045:1,2008-04-01T00:30:00Z,26.2168,-96.4998,4.0,5.601160594,133.9876193,7.58,'11111222,11111222,11111222' 
TABS,ioos:station:wmo:42045:1,2008-04-01T01:00:00Z,26.2168,-96.4998,4.0,5.941153087,138.070442,7.49,'11111222,11111222,11111222' 
TABS,ioos:station:wmo:42045:1,2008-04-01T01:30:00Z,26.2168,-96.4998,4.0,5.772183296,142.6737906,8.42,'11111222,11111222,11111222' 
TABS,ioos:station:wmo:42045:1,2008-04-01T02:00:00Z,26.2168,-96.4998,4.0,5.213290707,141.8554186,6.72,'11111222,11111222,11111222' 
TABS,ioos:station:wmo:42045:1,2008-04-01T02:30:00Z,26.2168,-96.4998,4.0,5.139970817,145.3826884,6.63,'11111222,11111222,11111222' 
TABS,ioos:station:wmo:42045:1,2008-04-01T03:00:00Z,26.2168,-96.4998,4.0,3.661707252,149.6537389,4.7,'11111222,11111222,11111222' 
TABS,ioos:station:wmo:42045:1,2008-04-01T03:30:00Z,26.2168,-96.4998,4.0,3.337439138,128.5528939,4.43,'11111222,11111222,11111222' 
TABS,ioos:station:wmo:42045:1,2008-04-01T04:00:00Z,26.2168,-96.4998,4.0,2.8582862,117.7308883,3.99,'11111222,11111222,11111222' 
TABS,ioos:station:wmo:42045:1,2008-04-01T04:30:00Z,26.2168,-96.4998,4.0,2.292684017,113.6583626,3.15,'11111222,11111222,11111222' 
TABS,ioos:station:wmo:42045:1,2008-04-01T05:00:00Z,26.2168,-96.4998,4.0,2.654147697,114.2477954,3.96,'11111222,11111222,11111222' 
TABS,ioos:station:wmo:42045:1,2008-04-01T05:30:00Z,26.2168,-96.4998,4.0,2.311925604,121.5591423,3.38,'11111222,11111222,11111222' 
TABS,ioos:station:wmo:42045:1,2008-04-01T06:00:00Z,26.2168,-96.4998,4.0,3.725184559,145.4996896,4.63,'11111222,11111222,11111222' 
TABS,ioos:station:wmo:42045:1,2008-04-01T06:30:00Z,26.2168,-96.4998,4.0,4.143645738,148.4199579,5.33,'11111222,11111222,11111222' 
TABS,ioos:station:wmo:42045:1,2008-04-01T07:00:00Z,26.2168,-96.4998,4.0,4.029950372,150.5728229,5.24,'11111222,11111222,11111222' 
TABS,ioos:station:wmo:42045:1,2008-04-01T07:30:00Z,26.2168,-96.4998,4.0,3.104593371,154.8384364,4.2,'11111222,11111222,11111222' 
TABS,ioos:station:wmo:42045:1,2008-04-01T08:00:00Z,26.2168,-96.4998,4.0,2.743446737,147.3528989,3.63,'11111222,11111222,11111222' 
TABS,ioos:station:wmo:42045:1,2008-04-01T08:30:00Z,26.2168,-96.4998,4.0,2.241985727,155.4928625,3.2,'11111222,11111222,11111222' 
TABS,ioos:station:wmo:42045:1,2008-04-01T09:00:00Z,26.2168,-96.4998,4.0,0.741687266,86.13412695,1.77,'11111222,11111222,11111222' 
TABS,ioos:station:wmo:42045:1,2008-04-01T09:30:00Z,26.2168,-96.4998,4.0,1.30418557,37.8361536,1.79,'11111222,11111222,11111222' 
TABS,ioos:station:wmo:42045:1,2008-04-01T10:00:00Z,26.2168,-96.4998,4.0,1.284133949,8.508472961,1.88,'11111222,11111222,11111222' 
TABS,ioos:station:wmo:42045:1,2008-04-01T10:30:00Z,26.2168,-96.4998,4.0,1.644384383,71.56467337,2.37,'11111222,11111222,11111222' 
TABS,ioos:station:wmo:42045:1,2008-04-01T11:00:00Z,26.2168,-96.4998,4.0,2.296105398,53.67875094,2.93,'11111222,11111222,11111222' 
TABS,ioos:station:wmo:42045:1,2008-04-01T11:30:00Z,26.2168,-96.4998,4.0,2.311471393,95.7110007,3.42,'11111222,11111222,11111222' 
TABS,ioos:station:wmo:42045:1,2008-04-01T12:00:00Z,26.2168,-96.4998,4.0,2.305558501,86.02020594,3.43,'11111222,11111222,11111222' 
TABS,ioos:station:wmo:42045:1,2008-04-01T12:30:00Z,26.2168,-96.4998,4.0,3.485584599,100.2464333,4.35,'11111222,11111222,11111222' 
TABS,ioos:station:wmo:42045:1,2008-04-01T13:00:00Z,26.2168,-96.4998,4.0,3.617084461,120.3936125,4.67,'11111222,11111222,11111222' 
TABS,ioos:station:wmo:42045:1,2008-04-01T13:30:00Z,26.2168,-96.4998,4.0,3.289072818,104.7971486,4.39,'11111222,11111222,11111222' 
TABS,ioos:station:wmo:42045:1,2008-04-01T14:00:00Z,26.2168,-96.4998,4.0,3.208613408,101.8706577,4.29,'11111222,11111222,11111222' 
TABS,ioos:station:wmo:42045:1,2008-04-01T14:30:00Z,26.2168,-96.4998,4.0,2.795460606,108.5649546,3.62,'11111222,11111222,11111222' 
TABS,ioos:station:wmo:42045:1,2008-04-01T15:00:00Z,26.2168,-96.4998,4.0,2.673667893,102.5291993,3.55,'11111222,11111222,11111222' 
TABS,ioos:station:wmo:42045:1,2008-04-01T15:30:00Z,26.2168,-96.4998,4.0,2.318641844,94.9487431,3.12,'11111222,11111222,11111222' 
TABS,ioos:station:wmo:42045:1,2008-04-01T16:00:00Z,26.2168,-96.4998,4.0,2.087103256,71.56467337,2.67,'11111222,11111222,11111222' 
TABS,ioos:station:wmo:42045:1,2008-04-01T16:30:00Z,26.2168,-96.4998,4.0,2.00551739,55.35871258,2.75,'11111222,11111222,11111222' 
TABS,ioos:station:wmo:42045:1,2008-04-01T17:00:00Z,26.2168,-96.4998,4.0,2.150372061,68.44560956,2.96,'11111222,11111222,11111222' 
TABS,ioos:station:wmo:42045:1,2008-04-01T17:30:00Z,26.2168,-96.4998,4.0,2.617728023,65.39265288,3.49,'11111222,11111222,11111222' 
TABS,ioos:station:wmo:42045:1,2008-04-01T18:00:00Z,26.2168,-96.4998,4.0,2.782121493,60.02487076,3.55,'11111222,11111222,11111222' 
TABS,ioos:station:wmo:42045:1,2008-04-01T18:30:00Z,26.2168,-96.4998,4.0,2.704163457,72.56975702,3.7,'11111222,11111222,11111222' 
TABS,ioos:station:wmo:42045:1,2008-04-01T19:00:00Z,26.2168,-96.4998,4.0,2.512687804,76.18458605,3.38,'11111222,11111222,11111222' 
TABS,ioos:station:wmo:42045:1,2008-04-01T19:30:00Z,26.2168,-96.4998,4.0,2.406511999,62.26328092,3.06,'11111222,11111222,11111222' 
TABS,ioos:station:wmo:42045:1,2008-04-01T20:00:00Z,26.2168,-96.4998,4.0,2.338567938,66.83321331,2.97,'11111222,11111222,11111222' 
TABS,ioos:station:wmo:42045:1,2008-04-01T20:30:00Z,26.2168,-96.4998,4.0,2.723563842,63.15234775,3.54,'11111222,11111222,11111222' 
TABS,ioos:station:wmo:42045:1,2008-04-01T21:00:00Z,26.2168,-96.4998,4.0,3.019437034,64.70761707,3.82,'11111222,11111222,11111222' 
TABS,ioos:station:wmo:42045:1,2008-04-01T21:30:00Z,26.2168,-96.4998,4.0,3.024979339,74.86078163,4.03,'11111222,11111222,11111222' 
TABS,ioos:station:wmo:42045:1,2008-04-01T22:00:00Z,26.2168,-96.4998,4.0,3.179701244,63.27342127,4.42,'11111222,11111222,11111222' 
TABS,ioos:station:wmo:42045:1,2008-04-01T22:30:00Z,26.2168,-96.4998,4.0,3.997123966,55.39516427,5.17,'11111222,11111222,11111222' 
TABS,ioos:station:wmo:42045:1,2008-04-01T23:00:00Z,26.2168,-96.4998,4.0,4.125396951,60.20308758,5.21,'11111222,11111222,11111222' 
TABS,ioos:station:wmo:42045:1,2008-04-01T23:30:00Z,26.2168,-96.4998,4.0,4.934652977,66.34366313,6.56,'11111222,11111222,11111222' 
TABS,ioos:station:wmo:42045:1,2008-04-02T00:00:00Z,26.2168,-96.4998,4.0,4.718315377,62.8915196,5.98,'11111222,11111222,11111222' 
TABS,ioos:station:wmo:42045:1,2008-04-02T00:30:00Z,26.2168,-96.4998,4.0,4.534677497,56.23950396,5.81,'11111222,11111222,11111222' 
TABS,ioos:station:wmo:42045:1,2008-04-02T01:00:00Z,26.2168,-96.4998,4.0,4.145129672,58.91736876,5.28,'11111222,11111222,11111222' 
TABS,ioos:station:wmo:42045:1,2008-04-02T01:30:00Z,26.2168,-96.4998,4.0,4.236083096,58.71114579,5.39,'11111222,11111222,11111222' 
TABS,ioos:station:wmo:42045:1,2008-04-02T02:00:00Z,26.2168,-96.4998,4.0,4.373236788,54.4924446,5.46,'11111222,11111222,11111222' 
TABS,ioos:station:wmo:42045:1,2008-04-02T02:30:00Z,26.2168,-96.4998,4.0,4.302894375,49.05175001,5.36,'11111222,11111222,11111222' 
TABS,ioos:station:wmo:42045:1,2008-04-02T03:00:00Z,26.2168,-96.4998,4.0,5.26758009,57.24482323,6.65,'11111222,11111222,11111222' 
TABS,ioos:station:wmo:42045:1,2008-04-02T03:30:00Z,26.2168,-96.4998,4.0,4.781819737,62.20203945,5.84,'11111222,11111222,11111222' 
TABS,ioos:station:wmo:42045:1,2008-04-02T04:00:00Z,26.2168,-96.4998,4.0,4.805132672,60.44703389,6.0,'11111222,11111222,11111222' 
TABS,ioos:station:wmo:42045:1,2008-04-02T04:30:00Z,26.2168,-96.4998,4.0,4.961663028,71.30905396,6.33,'11111222,11111222,11111222' 
TABS,ioos:station:wmo:42045:1,2008-04-02T05:00:00Z,26.2168,-96.4998,4.0,4.48790597,74.75569317,5.75,'11111222,11111222,11111222' 
TABS,ioos:station:wmo:42045:1,2008-04-02T05:30:00Z,26.2168,-96.4998,4.0,4.305124853,77.9327359,5.38,'11111222,11111222,11111222' 
TABS,ioos:station:wmo:42045:1,2008-04-02T06:00:00Z,26.2168,-96.4998,4.0,4.322453007,84.15710348,5.54,'11111222,11111222,11111222' 
TABS,ioos:station:wmo:42045:1,2008-04-02T06:30:00Z,26.2168,-96.4998,4.0,3.485742389,86.7103441,4.44,'11111222,11111222,11111222' 
TABS,ioos:station:wmo:42045:1,2008-04-02T07:00:00Z,26.2168,-96.4998,4.0,3.851700923,94.46756953,4.81,'11111222,11111222,11111222' 
TABS,ioos:station:wmo:42045:1,2008-04-02T07:30:00Z,26.2168,-96.4998,4.0,3.465775526,93.30862672,4.34,'11111222,11111222,11111222' 
TABS,ioos:station:wmo:42045:1,2008-04-02T08:00:00Z,26.2168,-96.4998,4.0,3.498942697,106.7780488,4.73,'11111222,11111222,11111222' 
TABS,ioos:station:wmo:42045:1,2008-04-02T08:30:00Z,26.2168,-96.4998,4.0,3.212102115,122.7998755,4.16,'11111222,11111222,11111222' 
TABS,ioos:station:wmo:42045:1,2008-04-02T09:00:00Z,26.2168,-96.4998,4.0,4.038873605,128.0619461,5.39,'11111222,11111222,11111222' 
TABS,ioos:station:wmo:42045:1,2008-04-02T09:30:00Z,26.2168,-96.4998,4.0,4.0909901,124.0400059,5.18,'11111222,11111222,11111222' 
TABS,ioos:station:wmo:42045:1,2008-04-02T10:00:00Z,26.2168,-96.4998,4.0,3.394362974,109.9834807,4.31,'11111222,11111222,11111222' 
TABS,ioos:station:wmo:42045:1,2008-04-02T10:30:00Z,26.2168,-96.4998,4.0,4.028523303,112.9375056,4.91,'11111222,11111222,11111222' 
TABS,ioos:station:wmo:42045:1,2008-04-02T11:00:00Z,26.2168,-96.4998,4.0,4.638103061,113.9126826,6.23,'11111222,11111222,11111222' 
TABS,ioos:station:wmo:42045:1,2008-04-02T11:30:00Z,26.2168,-96.4998,4.0,3.326740146,108.2174735,4.31,'11111222,11111222,11111222' 
TABS,ioos:station:wmo:42045:1,2008-04-02T12:00:00Z,26.2168,-96.4998,4.0,2.947626164,115.5222055,3.86,'11111222,11111222,11111222' 
TABS,ioos:station:wmo:42045:1,2008-04-02T12:30:00Z,26.2168,-96.4998,4.0,2.326993769,123.9635692,3.04,'11111222,11111222,11111222' 
TABS,ioos:station:wmo:42045:1,2008-04-02T13:00:00Z,26.2168,-96.4998,4.0,2.38421895,133.1307952,3.07,'11111222,11111222,11111222' 
TABS,ioos:station:wmo:42045:1,2008-04-02T13:30:00Z,26.2168,-96.4998,4.0,1.499366533,129.3166226,1.99,'11111222,11111222,11111222' 
TABS,ioos:station:wmo:42045:1,2008-04-02T14:00:00Z,26.2168,-96.4998,4.0,0.952680429,129.0358425,1.39,'11111222,11111222,11111222' 
TABS,ioos:station:wmo:42045:1,2008-04-02T14:30:00Z,26.2168,-96.4998,4.0,1.316852308,80.8233972,1.85,'11111222,11111222,11111222' 
TABS,ioos:station:wmo:42045:1,2008-04-02T15:00:00Z,26.2168,-96.4998,4.0,1.171067889,87.55253616,2.04,'11111222,11111222,11111222' 
TABS,ioos:station:wmo:42045:1,2008-04-02T15:30:00Z,26.2168,-96.4998,4.0,2.399541623,124.8163063,3.11,'11111222,11111222,11111222' 
TABS,ioos:station:wmo:42045:1,2008-04-02T16:00:00Z,26.2168,-96.4998,4.0,1.793014222,138.8444423,2.32,'11111222,11111222,11111222' 
TABS,ioos:station:wmo:42045:1,2008-04-02T16:30:00Z,26.2168,-96.4998,4.0,2.351850335,138.4476945,2.95,'11111222,11111222,11111222' 
TABS,ioos:station:wmo:42045:1,2008-04-02T17:00:00Z,26.2168,-96.4998,4.0,2.668107944,142.6150098,3.56,'11111222,11111222,11111222' 
TABS,ioos:station:wmo:42045:1,2008-04-02T17:30:00Z,26.2168,-96.4998,4.0,2.971060417,136.6368889,3.99,'11111222,11111222,11111222' 
TABS,ioos:station:wmo:42045:1,2008-04-02T18:00:00Z,26.2168,-96.4998,4.0,3.474766179,148.4143868,4.63,'11111222,11111222,11111222' 
TABS,ioos:station:wmo:42045:1,2008-04-02T18:30:00Z,26.2168,-96.4998,4.0,3.562751745,159.6324375,4.72,'11111222,11111222,11111222' 
TABS,ioos:station:wmo:42045:1,2008-04-02T19:00:00Z,26.2168,-96.4998,4.0,3.317303122,146.9329759,4.37,'11111222,11111222,11111222' 
TABS,ioos:station:wmo:42045:1,2008-04-02T19:30:00Z,26.2168,-96.4998,4.0,3.323386827,141.4751156,4.09,'11111222,11111222,11111222' 
TABS,ioos:station:wmo:42045:1,2008-04-02T20:00:00Z,26.2168,-96.4998,4.0,2.621030332,124.1148141,3.49,'11111222,11111222,11111222' 
TABS,ioos:station:wmo:42045:1,2008-04-02T20:30:00Z,26.2168,-96.4998,4.0,3.200390601,118.9680138,4.14,'11111222,11111222,11111222' 
TABS,ioos:station:wmo:42045:1,2008-04-02T21:00:00Z,26.2168,-96.4998,4.0,3.556472972,115.1243141,4.69,'11111222,11111222,11111222' 
TABS,ioos:station:wmo:42045:1,2008-04-02T21:30:00Z,26.2168,-96.4998,4.0,4.147010972,122.6940641,5.0,'11111222,11111222,11111222' 
TABS,ioos:station:wmo:42045:1,2008-04-02T22:00:00Z,26.2168,-96.4998,4.0,4.588518279,124.9719002,5.83,'11111222,11111222,11111222' 
TABS,ioos:station:wmo:42045:1,2008-04-02T22:30:00Z,26.2168,-96.4998,4.0,4.402465218,121.3435409,5.65,'11111222,11111222,11111222' 
TABS,ioos:station:wmo:42045:1,2008-04-02T23:00:00Z,26.2168,-96.4998,4.0,4.425562111,119.8094654,5.63,'11111222,11111222,11111222' 
TABS,ioos:station:wmo:42045:1,2008-04-02T23:30:00Z,26.2168,-96.4998,4.0,4.298930099,123.6164798,5.29,'11111222,11111222,11111222' 
TABS,ioos:station:wmo:42045:1,2008-04-03T00:00:00Z,26.2168,-96.4998,4.0,4.778974785,124.2556995,6.29,'11111222,11111222,11111222' 
TABS,ioos:station:wmo:42045:1,2008-04-03T00:30:00Z,26.2168,-96.4998,4.0,4.747093848,118.2929359,5.84,'11111222,11111222,11111222' 
TABS,ioos:station:wmo:42045:1,2008-04-03T01:00:00Z,26.2168,-96.4998,4.0,5.186135363,121.1156805,6.57,'11111222,11111222,11111222' 
TABS,ioos:station:wmo:42045:1,2008-04-03T01:30:00Z,26.2168,-96.4998,4.0,4.757488833,122.5546681,6.03,'11111222,11111222,11111222' 
TABS,ioos:station:wmo:42045:1,2008-04-03T02:00:00Z,26.2168,-96.4998,4.0,4.018880441,124.0462787,5.06,'11111222,11111222,11111222' 
TABS,ioos:station:wmo:42045:1,2008-04-03T02:30:00Z,26.2168,-96.4998,4.0,3.820994635,120.8612404,5.27,'11111222,11111222,11111222' 
TABS,ioos:station:wmo:42045:1,2008-04-03T03:00:00Z,26.2168,-96.4998,4.0,3.806008408,126.9906644,5.01,'11111222,11111222,11111222' 
TABS,ioos:station:wmo:42045:1,2008-04-03T03:30:00Z,26.2168,-96.4998,4.0,4.061329831,129.8058989,5.26,'11111222,11111222,11111222' 
TABS,ioos:station:wmo:42045:1,2008-04-03T04:00:00Z,26.2168,-96.4998,4.0,4.464134855,121.1622068,5.83,'11111222,11111222,11111222' 
TABS,ioos:station:wmo:42045:1,2008-04-03T04:30:00Z,26.2168,-96.4998,4.0,5.275234592,123.4795434,6.72,'11111222,11111222,11111222' 
TABS,ioos:station:wmo:42045:1,2008-04-03T05:00:00Z,26.2168,-96.4998,4.0,5.448375905,127.543278,6.79,'11111222,11111222,11111222' 
TABS,ioos:station:wmo:42045:1,2008-04-03T05:30:00Z,26.2168,-96.4998,4.0,5.244702089,123.5692133,7.1,'11111222,11111222,11111222' 
TABS,ioos:station:wmo:42045:1,2008-04-03T06:00:00Z,26.2168,-96.4998,4.0,5.010638682,127.7850551,6.7,'11111222,11111222,11111222' 
TABS,ioos:station:wmo:42045:1,2008-04-03T06:30:00Z,26.2168,-96.4998,4.0,5.580439051,124.1175562,7.76,'11111222,11111222,11111222' 
TABS,ioos:station:wmo:42045:1,2008-04-03T07:00:00Z,26.2168,-96.4998,4.0,6.242155077,126.4663607,8.54,'11111222,11111222,11111222' 
TABS,ioos:station:wmo:42045:1,2008-04-03T07:30:00Z,26.2168,-96.4998,4.0,6.217306491,130.8914949,8.06,'11111222,11111222,11111222' 
TABS,ioos:station:wmo:42045:1,2008-04-03T08:00:00Z,26.2168,-96.4998,4.0,6.022001328,126.8321748,7.64,'11111222,11111222,11111222' 
TABS,ioos:station:wmo:42045:1,2008-04-03T08:30:00Z,26.2168,-96.4998,4.0,6.095522947,135.5320466,7.91,'11111222,11111222,11111222' 
TABS,ioos:station:wmo:42045:1,2008-04-03T09:00:00Z,26.2168,-96.4998,4.0,6.265540679,134.2243499,7.86,'11111222,11111222,11111222' 
TABS,ioos:station:wmo:42045:1,2008-04-03T09:30:00Z,26.2168,-96.4998,4.0,6.794262285,130.583327,8.49,'11111222,11111222,11111222' 
TABS,ioos:station:wmo:42045:1,2008-04-03T10:00:00Z,26.2168,-96.4998,4.0,6.893025461,132.6486333,8.93,'11111222,11111222,11111222' 
TABS,ioos:station:wmo:42045:1,2008-04-03T10:30:00Z,26.2168,-96.4998,4.0,7.63573834,137.2824378,9.46,'11111222,11111222,11111222' 
TABS,ioos:station:wmo:42045:1,2008-04-03T11:00:00Z,26.2168,-96.4998,4.0,7.424372027,137.4566782,9.32,'11111222,11111222,11111222' 
TABS,ioos:station:wmo:42045:1,2008-04-03T11:30:00Z,26.2168,-96.4998,4.0,7.213168513,135.7866771,9.07,'11111222,11111222,11111222' 
TABS,ioos:station:wmo:42045:1,2008-04-03T12:00:00Z,26.2168,-96.4998,4.0,7.53840832,135.7527481,9.81,'11111222,11111222,11111222' 
TABS,ioos:station:wmo:42045:1,2008-04-03T12:30:00Z,26.2168,-96.4998,4.0,6.886254425,137.413196,8.99,'11111222,11111222,11111222' 
TABS,ioos:station:wmo:42045:1,2008-04-03T13:00:00Z,26.2168,-96.4998,4.0,6.718630813,138.8625157,8.77,'11111222,11111222,11111222' 
TABS,ioos:station:wmo:42045:1,2008-04-03T13:30:00Z,26.2168,-96.4998,4.0,5.846246659,137.4958831,7.35,'11111222,11111222,11111222' 
TABS,ioos:station:wmo:42045:1,2008-04-03T14:00:00Z,26.2168,-96.4998,4.0,6.617099062,138.5537265,8.26,'11111222,11111222,11111222' 
TABS,ioos:station:wmo:42045:1,2008-04-03T14:30:00Z,26.2168,-96.4998,4.0,6.289864863,138.3516389,8.34,'11111222,11111222,11111222' 
TABS,ioos:station:wmo:42045:1,2008-04-03T15:00:00Z,26.2168,-96.4998,4.0,5.939511764,141.8376551,7.44,'11111222,11111222,11111222' 
TABS,ioos:station:wmo:42045:1,2008-04-03T15:30:00Z,26.2168,-96.4998,4.0,5.907774539,150.267428,7.78,'11111222,11111222,11111222' 
TABS,ioos:station:wmo:42045:1,2008-04-03T16:00:00Z,26.2168,-96.4998,4.0,6.064857789,158.4269106,7.62,'11111222,11111222,11111222' 
TABS,ioos:station:wmo:42045:1,2008-04-03T16:30:00Z,26.2168,-96.4998,4.0,6.036828638,161.3552116,7.59,'11111222,11111222,11111222' 
TABS,ioos:station:wmo:42045:1,2008-04-03T17:00:00Z,26.2168,-96.4998,4.0,6.205940702,158.1474196,7.92,'11111222,11111222,11111222' 
TABS,ioos:station:wmo:42045:1,2008-04-03T17:30:00Z,26.2168,-96.4998,4.0,5.892384916,151.7390351,7.5,'11111222,11111222,11111222' 
TABS,ioos:station:wmo:42045:1,2008-04-03T18:00:00Z,26.2168,-96.4998,4.0,6.9476111,150.8896042,9.16,'11111222,11111222,11111222' 
TABS,ioos:station:wmo:42045:1,2008-04-03T18:30:00Z,26.2168,-96.4998,4.0,7.097133224,156.9394803,9.0,'11111222,11111222,11111222' 
TABS,ioos:station:wmo:42045:1,2008-04-03T19:00:00Z,26.2168,-96.4998,4.0,7.013194707,156.469125,9.24,'11111222,11111222,11111222' 
TABS,ioos:station:wmo:42045:1,2008-04-03T19:30:00Z,26.2168,-96.4998,4.0,7.746069971,153.9644964,10.23,'11111222,11111222,11111222' 
TABS,ioos:station:wmo:42045:1,2008-04-03T20:00:00Z,26.2168,-96.4998,4.0,6.782484795,155.0599261,8.78,'11111222,11111222,11111222' 
TABS,ioos:station:wmo:42045:1,2008-04-03T20:30:00Z,26.2168,-96.4998,4.0,7.084970007,152.4225251,9.0,'11111222,11111222,11111222' 
TABS,ioos:station:wmo:42045:1,2008-04-03T21:00:00Z,26.2168,-96.4998,4.0,7.278818585,150.8998011,9.76,'11111222,11111222,11111222' 
TABS,ioos:station:wmo:42045:1,2008-04-03T21:30:00Z,26.2168,-96.4998,4.0,7.527370059,148.5274192,9.94,'11111222,11111222,11111222' 
TABS,ioos:station:wmo:42045:1,2008-04-03T22:00:00Z,26.2168,-96.4998,4.0,7.916375433,149.0613511,9.99,'11111222,11111222,11111222' 
TABS,ioos:station:wmo:42045:1,2008-04-03T22:30:00Z,26.2168,-96.4998,4.0,7.639437152,148.1618516,10.44,'11111222,11111222,11111222' 
TABS,ioos:station:wmo:42045:1,2008-04-03T23:00:00Z,26.2168,-96.4998,4.0,6.244397489,155.8980323,7.95,'11111222,11111222,11111222' 
TABS,ioos:station:wmo:42045:1,2008-04-03T23:30:00Z,26.2168,-96.4998,4.0,6.247023291,157.7049362,8.3,'11111222,11111222,11111222' 
TABS,ioos:station:wmo:42045:1,2008-04-04T00:00:00Z,26.2168,-96.4998,4.0,6.042333986,152.7142928,7.87,'11111222,11111222,11111222' 
TABS,ioos:station:wmo:42045:1,2008-04-04T00:30:00Z,26.2168,-96.4998,4.0,5.755666773,153.2571469,7.35,'11111222,11111222,11111222' 
TABS,ioos:station:wmo:42045:1,2008-04-04T01:00:00Z,26.2168,-96.4998,4.0,6.019177685,151.3062521,7.8,'11111222,11111222,11111222' 
TABS,ioos:station:wmo:42045:1,2008-04-04T01:30:00Z,26.2168,-96.4998,4.0,5.309105386,152.5181832,6.75,'11111222,11111222,11111222' 
TABS,ioos:station:wmo:42045:1,2008-04-04T02:00:00Z,26.2168,-96.4998,4.0,5.96685009,148.3613287,7.39,'11111222,11111222,11111222' 
TABS,ioos:station:wmo:42045:1,2008-04-04T02:30:00Z,26.2168,-96.4998,4.0,5.994163828,152.1526973,7.63,'11111222,11111222,11111222' 
TABS,ioos:station:wmo:42045:1,2008-04-04T03:00:00Z,26.2168,-96.4998,4.0,5.683000968,145.9746727,7.75,'11111222,11111222,11111222' 
TABS,ioos:station:wmo:42045:1,2008-04-04T03:30:00Z,26.2168,-96.4998,4.0,5.257803724,151.4854843,6.49,'11111222,11111222,11111222' 
TABS,ioos:station:wmo:42045:1,2008-04-04T04:00:00Z,26.2168,-96.4998,4.0,4.937124669,156.862627,6.27,'11111222,11111222,11111222' 
TABS,ioos:station:wmo:42045:1,2008-04-04T04:30:00Z,26.2168,-96.4998,4.0,5.09612598,156.4030765,6.59,'11111222,11111222,11111222' 
TABS,ioos:station:wmo:42045:1,2008-04-04T05:00:00Z,26.2168,-96.4998,4.0,5.484997721,160.1777922,6.82,'11111222,11111222,11111222' 
TABS,ioos:station:wmo:42045:1,2008-04-04T05:30:00Z,26.2168,-96.4998,4.0,5.29060488,169.9859806,6.92,'11111222,11111222,11111222' 
TABS,ioos:station:wmo:42045:1,2008-04-04T06:00:00Z,26.2168,-96.4998,4.0,4.500144442,173.3647702,6.07,'11111222,11111222,11111222' 
TABS,ioos:station:wmo:42045:1,2008-04-04T06:30:00Z,26.2168,-96.4998,4.0,5.182991414,166.0444335,6.68,'11111222,11111222,11111222' 
TABS,ioos:station:wmo:42045:1,2008-04-04T07:00:00Z,26.2168,-96.4998,4.0,6.669280321,161.375135,8.46,'11111222,11111222,11111222' 
TABS,ioos:station:wmo:42045:1,2008-04-04T07:30:00Z,26.2168,-96.4998,4.0,7.62360807,165.1801757,9.27,'11111222,11111222,11111222' 
TABS,ioos:station:wmo:42045:1,2008-04-04T08:00:00Z,26.2168,-96.4998,4.0,7.652515926,168.9252417,9.45,'11111222,11111222,11111222' 
TABS,ioos:station:wmo:42045:1,2008-04-04T08:30:00Z,26.2168,-96.4998,4.0,7.534567008,170.9129583,9.64,'11111222,11111222,11111222' 
TABS,ioos:station:wmo:42045:1,2008-04-04T09:00:00Z,26.2168,-96.4998,4.0,7.615201901,168.7935929,9.5,'11111222,11111222,11111222' 
TABS,ioos:station:wmo:42045:1,2008-04-04T09:30:00Z,26.2168,-96.4998,4.0,7.694757956,172.0070214,9.84,'11111222,11111222,11111222' 
TABS,ioos:station:wmo:42045:1,2008-04-04T10:00:00Z,26.2168,-96.4998,4.0,7.368127306,168.4920504,9.71,'11111222,11111222,11111222' 
TABS,ioos:station:wmo:42045:1,2008-04-04T10:30:00Z,26.2168,-96.4998,4.0,7.66627028,168.4118167,9.64,'11111222,11111222,11111222' 
TABS,ioos:station:wmo:42045:1,2008-04-04T11:00:00Z,26.2168,-96.4998,4.0,6.990307575,166.6001502,8.8,'11111222,11111222,11111222' 
TABS,ioos:station:wmo:42045:1,2008-04-04T11:30:00Z,26.2168,-96.4998,4.0,7.319269089,167.2931267,8.98,'11111222,11111222,11111222' 
TABS,ioos:station:wmo:42045:1,2008-04-04T12:00:00Z,26.2168,-96.4998,4.0,7.29451849,160.1245212,9.12,'11111222,11111222,11111222' 
TABS,ioos:station:wmo:42045:1,2008-04-04T12:30:00Z,26.2168,-96.4998,4.0,9.257267415,147.5290941,11.87,'11111222,11111222,11111222' 
TABS,ioos:station:wmo:42045:1,2008-04-04T13:00:00Z,26.2168,-96.4998,4.0,1.541200831,106.201106,5.49,'11111222,11111222,11111222' 
TABS,ioos:station:wmo:42045:1,2008-04-04T13:30:00Z,26.2168,-96.4998,4.0,6.286883171,147.8016955,9.44,'11111222,11111222,11111222' 
TABS,ioos:station:wmo:42045:1,2008-04-04T14:00:00Z,26.2168,-96.4998,4.0,7.830925871,149.5384464,9.81,'11111222,11111222,11111222' 
TABS,ioos:station:wmo:42045:1,2008-04-04T14:30:00Z,26.2168,-96.4998,4.0,8.87277296,153.6373725,11.04,'11111222,11111222,11111222' 
TABS,ioos:station:wmo:42045:1,2008-04-04T15:00:00Z,26.2168,-96.4998,4.0,8.997027287,155.8567288,12.2,'11111222,11111222,11111222' 
TABS,ioos:station:wmo:42045:1,2008-04-04T15:30:00Z,26.2168,-96.4998,4.0,8.148404752,163.6781664,10.55,'11111222,11111222,11111222' 
TABS,ioos:station:wmo:42045:1,2008-04-04T16:00:00Z,26.2168,-96.4998,4.0,6.870356614,170.1951552,8.5,'11111222,11111222,11111222' 
TABS,ioos:station:wmo:42045:1,2008-04-04T16:30:00Z,26.2168,-96.4998,4.0,5.831440645,171.0224969,7.19,'11111222,11111222,11111222' 
TABS,ioos:station:wmo:42045:1,2008-04-04T17:00:00Z,26.2168,-96.4998,4.0,5.660220844,176.5564838,7.09,'11111222,11111222,11111222' 
TABS,ioos:station:wmo:42045:1,2008-04-04T17:30:00Z,26.2168,-96.4998,4.0,4.67222645,189.361709,5.76,'11111222,11111222,11111222' 
TABS,ioos:station:wmo:42045:1,2008-04-04T18:00:00Z,26.2168,-96.4998,4.0,3.023987434,203.173868,3.76,'11111222,11111222,11111222' 
TABS,ioos:station:wmo:42045:1,2008-04-04T18:30:00Z,26.2168,-96.4998,4.0,2.01109423,201.5899517,2.79,'11111222,11111222,11111222' 